Flag for United Kingdom Weather past 2 weeks in Kingston upon Hull, England, United Kingdom

Now
43 °F

Broken clouds.


Feels Like: 37 °F
Forecast: 34 / 44 °F
Wind: 9 mph from West

Location: Humberside

Current Time: Dec 25, 2014 at 11:02:15 AM

Latest Report: Dec 25, 2014 at 10:20 AM


Visibility: N/A

Pressure: 30.27 "Hg

Humidity: 81%

Dew point: 37 °F

Location of Kingston upon HullLocation

Historic Weather in Kingston upon Hull — Graph

°F

Kingston upon Hull temperature yesterday

Maximum temperature yesterday: 52 °F (at 12:20 AM)
Minimum temperature yesterday: 39 °F (at 5:50 PM)
Average temperature yesterday: 45 °F

Past Weeks' High & Low Weather Summary

 TemperatureHumidityPressure
High59 °F (Dec 18, 12:50 PM)100% (Dec 11, 10:20 PM)30.33 "Hg (Dec 11, 10:20 PM)
Low30 °F (Dec 13, 6:20 AM)62% (Dec 10, 11:50 AM)29.09 "Hg (Dec 12, 4:50 AM)
Average46 °F83%29.77 "Hg
* Reported Dec 10 9:20 AM — Dec 25 9:50 AM, Kingston upon Hull, Weather by CustomWeather, © 2014

Note: Actual official high and low records may vary slightly from our data, if they occured in-between our weather recording intervals... More about our weather records

Advertising

Kingston upon Hull weather history for previous 24 hours

 ConditionsComfort  
Time TempWeatherWind HumidityBarometerVisibility
9:50 AM
Dec 25
43 °FPartly sunny.7 mph81%30.27 "HgN/A
9:20 AM43 °FPartly sunny.10 mph81%30.24 "HgN/A
8:50 AM43 °FScattered clouds.13 mph81%30.24 "HgN/A
8:20 AM43 °FPassing clouds.9 mph81%30.24 "HgN/A
7:50 AM41 °FPassing clouds.8 mph87%30.21 "HgN/A
7:20 AM43 °FQuite cool.9 mph81%30.21 "HgN/A
6:50 AM41 °FQuite cool.9 mph87%30.18 "HgN/A
6:20 AM41 °FQuite cool.13 mph87%30.18 "HgN/A
5:50 AM41 °FQuite cool.12 mph87%30.18 "HgN/A
5:20 AM41 °FQuite cool.10 mph87%30.15 "HgN/A
4:50 AM41 °FQuite cool.13 mph87%30.15 "HgN/A
4:20 AM43 °FQuite cool.13 mph81%30.15 "HgN/A
3:20 AM43 °FQuite cool.13 mph81%30.15 "HgN/A
2:50 AM43 °FPassing clouds.12 mph81%30.12 "HgN/A
2:20 AM45 °FQuite cool.10 mph76%30.12 "HgN/A
1:50 AM45 °FPassing clouds.10 mph76%30.09 "HgN/A
1:20 AM45 °FQuite cool.10 mph76%30.09 "HgN/A
12:50 AM45 °FQuite cool.15 mph76%30.09 "HgN/A
12:20 AM45 °FQuite cool.17 mph76%30.07 "HgN/A
11:50 PM
Dec 24
45 °FQuite cool.20 mph76%30.07 "HgN/A
11:20 PM45 °FQuite cool.20 mph76%30.04 "HgN/A
10:50 PM45 °FQuite cool.22 mph76%30.04 "HgN/A
10:20 PM45 °FQuite cool.22 mph76%30.04 "HgN/A
9:50 PM45 °FQuite cool.18 mph76%30.04 "HgN/A
9:20 PM45 °FQuite cool.18 mph76%30.04 "HgN/A
8:50 PM43 °FQuite cool.20 mph81%30.01 "HgN/A
8:20 PM43 °FQuite cool.21 mph81%30.01 "HgN/A
7:50 PM43 °FQuite cool.21 mph76%30.01 "HgN/A
7:20 PM43 °FQuite cool.14 mph76%29.98 "HgN/A
6:50 PM43 °FPassing clouds.17 mph76%29.98 "Hg4 mi
6:20 PM43 °FPartly cloudy.12 mph76%30.01 "HgN/A
5:50 PM39 °FPassing clouds.8 mph87%29.98 "HgN/A
5:20 PM43 °FQuite cool.13 mph76%29.98 "HgN/A
4:50 PM43 °FPassing clouds.13 mph76%29.98 "HgN/A
4:20 PM43 °FPassing clouds.17 mph76%29.98 "HgN/A
3:50 PM46 °FPassing clouds.15 mph66%29.98 "HgN/A
3:20 PM45 °FScattered clouds.15 mph71%29.95 "HgN/A
2:50 PM45 °FScattered showers. Scattered clouds.21 mph71%29.95 "HgN/A
2:20 PM46 °FScattered clouds.17 mph66%29.95 "HgN/A
1:50 PM46 °FScattered clouds.17 mph66%29.95 "HgN/A
1:20 PM46 °FScattered clouds.21 mph66%29.92 "HgN/A
12:50 PM46 °FScattered clouds.20 mph66%29.92 "HgN/A
12:20 PM46 °FPassing clouds.17 mph66%29.95 "HgN/A
11:50 AM46 °FPassing clouds.16 mph66%29.95 "HgN/A
11:20 AM45 °FPassing clouds.15 mph71%29.92 "HgN/A
Weather by CustomWeather, © 2014

See weather overviewHow to use our weather pages